OpenBCM V1.13 (Linux)

Packet Radio Mailbox

DB0FHN

[JN59NK Nuernberg]

 Login: GUEST





  
I6KZR  > KEPLER   13.01.03 23:04l 1460 Lines 39197 Bytes #999 (0) @ WW
BID : 17767_IK6WID
Read: DB0FHN GUEST
Subj: Old Istantrak Keplerians #013
Path: DB0FHN<DB0RGB<OE5XBL<OE3XSR<OK0PBX<OK0PAD<OK0PPL<RZ6HXA<SP7MGD<IK6PYS<
      I6ZLO<IK6WID
Sent: 030113/2036Z @:IK6WID.#AP.IMAR.ITA.EU #:17767 [MONTE URANO]  FBB7.00i
From: I6KZR@IK6WID.#AP.IMAR.ITA.EU
To  : KEPLER@WW


Satellite: OSCAR 7
Catalog number: 07530
Epoch time:      103012.66139577
Element set:     159 
Inclination:      101.7674 deg
RA of node:        60.7850 deg
Eccentricity:    0.0012628
Arg of perigee:   149.6935 deg
Mean anomaly:     210.4866 deg
Mean motion:   12.53563556 rev/day
Decay rate:   -2.9000E-007 rev/day^2
Epoch rev:           28856
Checksum:              319

Satellite: GOES 2
Catalog number: 10061
Epoch time:      103005.42586557
Element set:     46 
Inclination:       14.1214 deg
RA of node:        13.7857 deg
Eccentricity:    0.0013992
Arg of perigee:   196.1981 deg
Mean anomaly:     163.7785 deg
Mean motion:    0.99397401 rev/day
Decay rate:   -2.7099E-006 rev/day^2
Epoch rev:            3839
Checksum:              317

Satellite: GOES 3
Catalog number: 10953
Epoch time:      103012.04043259
Element set:     888 
Inclination:       13.3930 deg
RA of node:        17.5196 deg
Eccentricity:    0.0004480
Arg of perigee:   338.9634 deg
Mean anomaly:      21.0434 deg
Mean motion:    1.00278007 rev/day
Decay rate:   -8.3999E-007 rev/day^2
Epoch rev:            4312
Checksum:              398

Satellite: GOES 6
Catalog number: 14050
Epoch time:      103011.16182477
Element set:     412 
Inclination:       10.3515 deg
RA of node:        35.7729 deg
Eccentricity:    0.0003619
Arg of perigee:   347.7545 deg
Mean anomaly:      12.2152 deg
Mean motion:    1.00290314 rev/day
Decay rate:    6.5000E-007 rev/day^2
Epoch rev:           13025
Checksum:              237

Satellite: OSCAR 10
Catalog number: 14129
Epoch time:      103013.46521498
Element set:     910 
Inclination:       25.8991 deg
RA of node:       170.3076 deg
Eccentricity:    0.6042033
Arg of perigee:   318.8020 deg
Mean anomaly:       8.5310 deg
Mean motion:    2.05869623 rev/day
Decay rate:   -3.1300E-006 rev/day^2
Epoch rev:           11932
Checksum:              264

Satellite: OSCAR 11 (UoSA
Catalog number: 14781
Epoch time:      103012.98412003
Element set:     47 
Inclination:       98.1126 deg
RA of node:       346.6445 deg
Eccentricity:    0.0009319
Arg of perigee:   336.1822 deg
Mean anomaly:      23.8958 deg
Mean motion:   14.77871004 rev/day
Decay rate:    1.7369E-005 rev/day^2
Epoch rev:            1083
Checksum:              408

Satellite: NOAA 10
Catalog number: 16969
Epoch time:      103012.94879648
Element set:     625 
Inclination:       98.7259 deg
RA of node:         7.1434 deg
Eccentricity:    0.0012120
Arg of perigee:   190.4914 deg
Mean anomaly:     169.6029 deg
Mean motion:   14.27047305 rev/day
Decay rate:    1.8800E-006 rev/day^2
Epoch rev:           84868
Checksum:              330

Satellite: GOES 7
Catalog number: 17561
Epoch time:      102365.28731075
Element set:     800 
Inclination:        7.5101 deg
RA of node:        55.7833 deg
Eccentricity:    0.0005728
Arg of perigee:   297.8002 deg
Mean anomaly:      38.0435 deg
Mean motion:    1.00306786 rev/day
Decay rate:    9.1999E-007 rev/day^2
Epoch rev:            4124
Checksum:              404

Satellite: COSMOS 1861
Catalog number: 18129
Epoch time:      103012.91987115
Element set:     191 
Inclination:       82.9245 deg
RA of node:       173.6527 deg
Eccentricity:    0.0011639
Arg of perigee:   336.8596 deg
Mean anomaly:      23.2033 deg
Mean motion:   13.72696599 rev/day
Decay rate:    6.8000E-007 rev/day^2
Epoch rev:           77948
Checksum:              350

Satellite: EUTELSAT 1-F4 
Catalog number: 18351
Epoch time:      103003.32622024
Element set:     25 
Inclination:        7.0989 deg
RA of node:        59.3718 deg
Eccentricity:    0.0113260
Arg of perigee:   120.1761 deg
Mean anomaly:     239.7491 deg
Mean motion:    0.98821312 rev/day
Decay rate:   -7.3000E-007 rev/day^2
Epoch rev:            4222
Checksum:              263

Satellite: NOAA 11
Catalog number: 19531
Epoch time:      103012.94207128
Element set:     463 
Inclination:       98.9074 deg
RA of node:        94.4374 deg
Eccentricity:    0.0011173
Arg of perigee:   309.4721 deg
Mean anomaly:      50.5461 deg
Mean motion:   14.14518377 rev/day
Decay rate:    1.9900E-006 rev/day^2
Epoch rev:           73762
Checksum:              300

Satellite: ASTRA 1A
Catalog number: 19688
Epoch time:      103012.87178794
Element set:     555 
Inclination:        1.3032 deg
RA of node:        95.0773 deg
Eccentricity:    0.0004051
Arg of perigee:   195.1102 deg
Mean anomaly:     140.7789 deg
Mean motion:    1.00273537 rev/day
Decay rate:    5.3000E-007 rev/day^2
Epoch rev:            3182
Checksum:              277

Satellite: OSCAR 14 (UOSA
Catalog number: 20437
Epoch time:      103012.79586607
Element set:     144 
Inclination:       98.2785 deg
RA of node:        58.1568 deg
Eccentricity:    0.0010401
Arg of perigee:   316.0912 deg
Mean anomaly:      43.9436 deg
Mean motion:   14.31223511 rev/day
Decay rate:    1.2699E-006 rev/day^2
Epoch rev:           67723
Checksum:              305

Satellite: OSCAR 15 (UOSA
Catalog number: 20438
Epoch time:      103012.64883986
Element set:     786 
Inclination:       98.2529 deg
RA of node:        47.3035 deg
Eccentricity:    0.0009763
Arg of perigee:   328.9187 deg
Mean anomaly:      31.1422 deg
Mean motion:   14.30186393 rev/day
Decay rate:    1.0100E-006 rev/day^2
Epoch rev:           67688
Checksum:              436

Satellite: OSCAR 16 (PACS
Catalog number: 20439
Epoch time:      103012.60708132
Element set:     839 
Inclination:       98.3233 deg
RA of node:        69.4427 deg
Eccentricity:    0.0010648
Arg of perigee:   322.8334 deg
Mean anomaly:      37.2133 deg
Mean motion:   14.31455208 rev/day
Decay rate:    1.9300E-006 rev/day^2
Epoch rev:           67724
Checksum:              287

Satellite: OSCAR 17 (DOVE
Catalog number: 20440
Epoch time:      103012.95258944
Element set:     729 
Inclination:       98.3431 deg
RA of node:        73.5814 deg
Eccentricity:    0.0010920
Arg of perigee:   320.7402 deg
Mean anomaly:      39.2985 deg
Mean motion:   14.31731461 rev/day
Decay rate:    1.8900E-006 rev/day^2
Epoch rev:           67736
Checksum:              302

Satellite: OSCAR 18 (WEBE
Catalog number: 20441
Epoch time:      103012.93947647
Element set:     987 
Inclination:       98.3409 deg
RA of node:        72.8046 deg
Eccentricity:    0.0011294
Arg of perigee:   322.1761 deg
Mean anomaly:      37.8629 deg
Mean motion:   14.31536871 rev/day
Decay rate:    1.4099E-006 rev/day^2
Epoch rev:           67734
Checksum:              336

Satellite: OSCAR 19 (LUSA
Catalog number: 20442
Epoch time:      103013.20161557
Element set:     938 
Inclination:       98.3541 deg
RA of node:        76.0143 deg
Eccentricity:    0.0011793
Arg of perigee:   319.8703 deg
Mean anomaly:      40.1609 deg
Mean motion:   14.31699753 rev/day
Decay rate:    1.7200E-006 rev/day^2
Epoch rev:           67743
Checksum:              298

Satellite: JAS 1B (FUJI 2
Catalog number: 20480
Epoch time:      103012.98353171
Element set:     469 
Inclination:       99.0412 deg
RA of node:       342.6204 deg
Eccentricity:    0.0540950
Arg of perigee:    86.7295 deg
Mean anomaly:     279.5513 deg
Mean motion:   12.83327683 rev/day
Decay rate:   -1.8999E-007 rev/day^2
Epoch rev:           60582
Checksum:              332

Satellite: HST
Catalog number: 20580
Epoch time:      103013.17731481
Element set:     295 
Inclination:       28.4674 deg
RA of node:       274.4604 deg
Eccentricity:    0.0003864
Arg of perigee:   239.2523 deg
Mean anomaly:     231.3511 deg
Mean motion:   14.97660271 rev/day
Decay rate:    4.6739E-005 rev/day^2
Epoch rev:           49717
Checksum:              305

Satellite: EUTELSAT 2-F1
Catalog number: 20777
Epoch time:      103012.82162519
Element set:     13 
Inclination:        3.4133 deg
RA of node:        84.8601 deg
Eccentricity:    0.0001691
Arg of perigee:   150.6973 deg
Mean anomaly:     248.1858 deg
Mean motion:    1.00271776 rev/day
Decay rate:   -8.2999E-007 rev/day^2
Epoch rev:            2573
Checksum:              298

Satellite: FENGYUN 1B
Catalog number: 20788
Epoch time:      103012.92665036
Element set:     861 
Inclination:       99.0226 deg
RA of node:       355.4749 deg
Eccentricity:    0.0015404
Arg of perigee:   332.9491 deg
Mean anomaly:      27.0871 deg
Mean motion:   14.02139749 rev/day
Decay rate:    1.3100E-006 rev/day^2
Epoch rev:           63240
Checksum:              293

Satellite: EUTELSAT 2-F2
Catalog number: 21056
Epoch time:      103011.95963543
Element set:     609 
Inclination:        2.6392 deg
RA of node:        88.2425 deg
Eccentricity:    0.0002469
Arg of perigee:   217.5674 deg
Mean anomaly:     199.0872 deg
Mean motion:    1.00274943 rev/day
Decay rate:    1.3600E-006 rev/day^2
Epoch rev:            3150
Checksum:              287

Satellite: INFORMATOR 1
Catalog number: 21087
Epoch time:      103012.95422174
Element set:     604 
Inclination:       82.9412 deg
RA of node:       344.5189 deg
Eccentricity:    0.0035889
Arg of perigee:   355.1229 deg
Mean anomaly:       4.9581 deg
Mean motion:   13.74921967 rev/day
Decay rate:    7.0999E-007 rev/day^2
Epoch rev:           59985
Checksum:              350

Satellite: COSMOS 2123
Catalog number: 21089
Epoch time:      103012.92242677
Element set:     484 
Inclination:       82.9204 deg
RA of node:       208.5625 deg
Eccentricity:    0.0030601
Arg of perigee:    30.1025 deg
Mean anomaly:     330.1885 deg
Mean motion:   13.74400078 rev/day
Decay rate:    6.8000E-007 rev/day^2
Epoch rev:           59875
Checksum:              288

